FW9975 Weather Reports


time (UTC)temp
C
wind
direction
speed
KPH
gust
KPH
rain 1hr
cm
rain 24hr
cm
rain mn
cm
humidity
%
barometer
mb
20260505072817 18 200 4.8 4.8 0.00 0.00 0.00 62 1003.7
20260505072313 18 263 0.0 3.2 0.00 0.00 0.00 63 1003.8
20260505071809 18 263 1.6 4.8 0.00 0.00 0.00 62 1003.8
20260505071306 18 202 6.4 8.0 0.00 0.00 0.00 62 1003.8
20260505070804 18 204 4.8 9.7 0.00 0.00 0.00 62 1003.8
20260505070300 18 223 4.8 9.7 0.00 0.00 0.00 63 1003.9
20260505065755 18 217 4.8 4.8 0.00 0.00 0.00 63 1003.8
20260505065252 18 207 4.8 8.0 0.00 0.00 0.00 63 1003.5
20260505064749 18 208 6.4 11.3 0.00 0.00 0.00 63 1003.8
20260505064247 17 225 4.8 4.8 0.00 0.00 0.00 65 1003.8
20260505063744 17 203 6.4 8.0 0.00 0.00 0.00 66 1004.0
20260505063240 17 239 1.6 4.8 0.00 0.00 0.00 65 1004.0
20260505062737 17 258 0.0 3.2 0.00 0.00 0.00 66 1004.1
20260505062234 17 238 4.8 4.8 0.00 0.00 0.00 65 1003.9
20260505061731 17 257 1.6 3.2 0.00 0.00 0.00 66 1004.1
20260505061229 17 252 3.2 3.2 0.00 0.00 0.00 65 1003.8
20260505060726 18 239 3.2 4.8 0.00 0.00 0.00 65 1003.8
20260505060223 18 207 6.4 8.0 0.00 0.00 0.00 64 1003.6
20260505055718 18 245 3.2 4.8 0.00 0.00 0.00 64 1003.8
20260505055215 18 204 6.4 8.0 0.00 0.00 0.00 64 1003.3
20260505054713 18 209 4.8 8.0 0.00 0.00 0.00 63 1003.4
20260505054210 18 233 3.2 8.0 0.00 0.00 0.00 62 1003.2
20260505053708 18 215 4.8 9.7 0.00 0.00 0.00 62 1003.5
20260505053204 18 203 6.4 9.7 0.00 0.00 0.00 61 1003.6
20260505052702 19 200 8.0 11.3 0.00 0.00 0.00 60 1003.1
20260505052158 19 215 6.4 8.0 0.00 0.00 0.00 60 1003.2
20260505051655 19 198 4.8 8.0 0.00 0.00 0.00 60 1003.5
20260505051154 19 195 8.0 9.7 0.00 0.00 0.00 59 1003.4
20260505050651 19 241 4.8 8.0 0.00 0.00 0.00 59 1003.5
20260505050149 20 211 8.0 9.7 0.00 0.00 0.00 59 1003.7
20260505041619 20 273 1.6 4.8 0.00 0.00 0.00 59 1003.9
20260505041116 20 255 1.6 4.8 0.00 0.00 0.00 59 1004.0
20260505040613 20 252 1.6 8.0 0.00 0.00 0.00 58 1003.9
20260505040110 20 252 1.6 4.8 0.00 0.00 0.00 59 1004.1
20260505035607 20 252 1.6 4.8 0.00 0.00 0.00 59 1003.9
20260505035103 20 252 1.6 3.2 0.00 0.00 0.00 58 1004.0
20260505034600 20 251 1.6 4.8 0.00 0.00 0.00 59 1004.0
20260505034056 20 252 1.6 3.2 0.00 0.00 0.00 59 1004.0
20260505033553 20 241 3.2 4.8 0.00 0.00 0.00 60 1004.0
20260505033052 20 250 1.6 3.2 0.00 0.00 0.00 59 1003.8
20260505032549 20 251 1.6 3.2 0.00 0.00 0.00 59 1003.8
20260505032045 20 247 3.2 3.2 0.00 0.00 0.00 59 1003.9
20260505031543 20 226 4.8 4.8 0.00 0.00 0.00 60 1003.9
20260505031039 20 250 1.6 1.6 0.00 0.00 0.00 60 1004.0
20260505030536 20 244 3.2 3.2 0.00 0.00 0.00 60 1003.5
20260505030032 20 233 1.6 3.2 0.00 0.00 0.00 61 1003.6
20260505025528 20 233 1.6 3.2 0.00 0.00 0.00 61 1003.6
20260505025027 20 233 1.6 4.8 0.00 0.00 0.00 61 1003.4
20260505024524 20 233 1.6 3.2 0.00 0.00 0.00 60 1003.4
20260505024021 20 234 0.0 1.6 0.00 0.00 0.00 59 1003.3
20260505023518 20 234 1.6 1.6 0.00 0.00 0.00 59 1003.5
20260505023016 20 234 1.6 3.2 0.00 0.00 0.00 59 1003.3
20260505022513 20 234 1.6 3.2 0.00 0.00 0.00 59 1003.2
20260505022010 20 231 4.8 4.8 0.00 0.00 0.00 58 1003.2
20260505021506 20 233 3.2 4.8 0.00 0.00 0.00 58 1003.0
20260505021003 20 222 1.6 4.8 0.00 0.00 0.00 58 1003.2
20260505020458 20 224 4.8 4.8 0.00 0.00 0.00 59 1002.9
20260505015954 21 204 4.8 4.8 0.00 0.00 0.00 58 1002.8
20260505015452 20 232 4.8 4.8 0.00 0.00 0.00 58 1002.5
20260505014949 21 232 4.8 4.8 0.00 0.00 0.00 58 1002.6
20260505014446 21 233 1.6 3.2 0.00 0.00 0.00 58 1002.7
20260505013943 21 233 3.2 3.2 0.00 0.00 0.00 57 1002.7
20260505013440 21 230 4.8 4.8 0.00 0.00 0.00 57 1002.6
20260505012937 21 227 4.8 4.8 0.00 0.00 0.00 57 1002.6
20260505012435 21 226 4.8 4.8 0.00 0.00 0.00 56 1002.6
20260505011931 21 220 4.8 4.8 0.00 0.00 0.00 57 1002.5
20260505011427 21 222 4.8 4.8 0.00 0.00 0.00 56 1002.6
20260505010925 21 232 3.2 4.8 0.00 0.00 0.00 55 1002.6
20260505010420 21 233 3.2 4.8 0.00 0.00 0.00 55 1002.5
20260505005917 21 227 4.8 8.0 0.00 0.00 0.00 54 1002.5
20260505005414 22 227 4.8 4.8 0.00 0.00 0.00 54 1002.6
20260505004911 22 221 4.8 9.7 0.00 0.00 0.00 53 1002.3
20260505004408 22 233 3.2 8.0 0.00 0.00 0.00 53 1002.2
20260505003905 22 205 6.4 8.0 0.00 0.00 0.00 52 1002.2
20260505003402 22 207 6.4 8.0 0.00 0.00 0.00 52 1002.3
20260505002858 22 206 4.8 4.8 0.00 0.00 0.00 52 1002.5
20260505002354 22 218 3.2 4.8 0.00 0.00 0.00 51 1002.3
20260505001853 22 209 4.8 8.0 0.00 0.00 0.00 50 1002.3
20260505001349 22 197 6.4 11.3 0.00 0.00 0.00 50 1002.6
20260505000847 22 216 4.8 4.8 0.00 0.00 0.00 49 1002.6
20260505000345 23 240 3.2 9.7 0.00 0.00 0.00 49 1002.6
20260504235841 23 246 3.2 4.8 0.00 0.00 0.00 49 1002.8
20260504235338 23 263 1.6 4.8 0.00 0.00 0.00 47 1002.7
20260504234835 23 264 1.6 8.0 0.00 0.00 0.00 46 1002.8
20260504234332 23 249 1.6 9.7 0.00 0.00 0.00 46 1003.2
20260504233829 23 299 3.2 8.0 0.00 0.00 0.00 45 1003.0
20260504233324 23 238 3.2 8.0 0.00 0.00 0.00 44 1003.0
20260504232822 23 253 6.4 14.5 0.00 0.00 0.00 44 1003.0
20260504232319 24 196 6.4 8.0 0.00 0.00 0.00 45 1003.1
20260504231815 24 258 3.2 9.7 0.00 0.00 0.00 44 1003.1
20260504231312 24 261 6.4 9.7 0.00 0.00 0.00 45 1003.1
20260504230808 24 238 4.8 8.0 0.00 0.00 0.00 44 1003.3
20260504230306 24 253 3.2 11.3 0.00 0.00 0.00 45 1002.9
20260504225805 25 273 4.8 14.5 0.00 0.00 0.00 44 1003.2
20260504225301 25 241 3.2 4.8 0.00 0.00 0.00 44 1003.4
20260504224758 24 206 4.8 11.3 0.00 0.00 0.00 44 1003.5
20260504224255 25 275 3.2 14.5 0.00 0.00 0.00 45 1003.3
20260504223751 25 265 4.8 9.7 0.00 0.00 0.00 44 1003.4
20260504223247 25 212 6.4 8.0 0.00 0.00 0.00 46 1003.2
20260504222744 25 249 11.3 17.7 0.00 0.00 0.00 44 1003.4
20260504222241 24 256 3.2 11.3 0.00 0.00 0.00 46 1003.4
20260504221739 23 238 9.7 14.5 0.00 0.00 0.00 49 1003.2
20260504221236 23 210 4.8 4.8 0.00 0.00 0.00 52 1003.1
20260504220732 23 199 8.0 9.7 0.00 0.00 0.00 52 1003.5
20260504220229 23 207 6.4 8.0 0.00 0.00 0.00 52 1003.3
20260504215727 23 213 4.8 4.8 0.00 0.00 0.00 51 1003.4
20260504215223 23 278 0.0 3.2 0.00 0.00 0.00 50 1003.7
20260504214719 23 270 0.0 3.2 0.00 0.00 0.00 50 1003.7
20260504214215 23 273 0.0 3.2 0.00 0.00 0.00 51 1003.7
20260504213712 24 260 1.6 8.0 0.00 0.00 0.00 51 1003.7
20260504213209 23 210 4.8 4.8 0.00 0.00 0.00 52 1003.8
20260504212706 24 223 4.8 4.8 0.00 0.00 0.00 50 1004.0
20260504212203 24 277 4.8 11.3 0.00 0.00 0.00 48 1004.1
20260504211700 25 291 0.0 9.7 0.00 0.00 0.00 47 1003.9
20260504211156 25 274 4.8 8.0 0.00 0.00 0.00 47 1004.0
20260504210654 25 266 1.6 3.2 0.00 0.00 0.00 47 1003.9
20260504210150 24 270 3.2 8.0 0.00 0.00 0.00 48 1004.3
20260504205648 25 259 3.2 9.7 0.00 0.00 0.00 48 1004.2
20260504205144 25 292 1.6 3.2 0.00 0.00 0.00 47 1004.3
20260504204643 26 293 3.2 9.7 0.00 0.00 0.00 46 1004.2
20260504204142 25 285 3.2 9.7 0.00 0.00 0.00 47 1004.3
20260504203640 25 260 3.2 3.2 0.00 0.00 0.00 46 1004.2
20260504203137 25 307 8.0 12.9 0.00 0.00 0.00 46 1004.5
20260504202637 25 266 1.6 3.2 0.00 0.00 0.00 48 1005.0
20260504202134 24 251 1.6 3.2 0.00 0.00 0.00 48 1004.6
20260504201631 24 260 3.2 4.8 0.00 0.00 0.00 50 1004.7
20260504201129 23 291 6.4 9.7 0.00 0.00 0.00 47 1004.6
20260504200626 23 184 4.8 8.0 0.00 0.00 0.00 51 1004.9
20260504200122 24 251 0.0 3.2 0.00 0.00 0.00 49 1004.9
20260504195618 24 291 3.2 4.8 0.00 0.00 0.00 48 1005.1
20260504195115 23 275 1.6 8.0 0.00 0.00 0.00 51 1005.2
20260504194612 23 220 3.2 9.7 0.00 0.00 0.00 54 1005.3
20260504194107 23 228 4.8 8.0 0.00 0.00 0.00 51 1005.5
20260504193604 23 258 3.2 4.8 0.00 0.00 0.00 50 1005.7
20260504193103 23 245 3.2 8.0 0.00 0.00 0.00 55 1005.6
20260504192600 23 268 3.2 11.3 0.00 0.00 0.00 53 1005.7
20260504192058 22 264 1.6 4.8 0.00 0.00 0.00 56 1005.6
20260504191556 23 195 12.9 14.5 0.00 0.00 0.00 54 1005.7
20260504191052 23 266 3.2 11.3 0.00 0.00 0.00 53 1006.0
20260504190548 22 249 1.6 4.8 0.00 0.00 0.00 56 1006.0
20260504190044 21 306 3.2 9.7 0.00 0.00 0.00 56 1005.9
20260504185542 21 353 4.8 4.8 0.00 0.00 0.00 56 1006.0
20260504185038 21 247 3.2 4.8 0.00 0.00 0.00 57 1006.3
20260504184534 21 282 0.0 3.2 0.00 0.00 0.00 59 1006.3
20260504184029 21 253 3.2 8.0 0.00 0.00 0.00 59 1006.1
20260504183527 21 268 1.6 4.8 0.00 0.00 0.00 60 1006.4
20260504183025 21 208 6.4 8.0 0.00 0.00 0.00 61 1006.3
20260504182521 21 295 4.8 12.9 0.00 0.00 0.00 59 1006.2
20260504182019 21 263 4.8 9.7 0.00 0.00 0.00 59 1005.8
20260504181515 20 255 4.8 11.3 0.00 0.00 0.00 58 1006.0
20260504181014 20 221 9.7 11.3 0.00 0.00 0.00 60 1005.8
20260504180512 20 269 3.2 8.0 0.00 0.00 0.00 60 1005.7
20260504180011 20 229 8.0 12.9 0.00 0.00 0.00 61 1005.8
20260504175508 20 233 4.8 11.3 0.00 0.00 0.00 59 1005.6
20260504175005 20 257 4.8 14.5 0.00 0.00 0.00 59 1005.9
20260504174503 20 213 4.8 11.3 0.00 0.00 0.00 60 1005.6
20260504173959 20 274 9.7 16.1 0.00 0.00 0.00 58 1005.6
20260504173456 21 184 11.3 16.1 0.00 0.00 0.00 59 1005.7
20260504172953 21 267 4.8 8.0 0.00 0.00 0.00 58 1005.9
20260504172449 20 201 6.4 8.0 0.00 0.00 0.00 59 1005.8
20260504171946 20 267 1.6 11.3 0.00 0.00 0.00 59 1005.8
20260504171443 20 238 6.4 11.3 0.00 0.00 0.00 59 1005.5
20260504170940 20 188 16.1 16.1 0.00 0.00 0.00 59 1004.9
20260504170436 20 199 8.0 9.7 0.00 0.00 0.00 59 1005.5
20260504160355 20 279 1.6 4.8 0.00 0.00 0.00 57 1006.5
20260504150820 17 199 8.0 9.7 0.00 0.00 0.00 63 1006.4
20260504150316 17 192 6.4 8.0 0.00 0.00 0.00 64 1006.5
20260504141247 16 206 8.0 14.5 0.00 0.00 0.00 64 1006.8
20260504140743 16 229 3.2 9.7 0.00 0.00 0.00 67 1006.9
20260504140239 16 207 8.0 9.7 0.00 0.00 0.00 66 1007.0
20260504130708 13 214 4.8 8.0 0.00 0.00 0.00 72 1007.6
20260504130203 13 193 4.8 8.0 0.00 0.00 0.00 70 1007.5
20260504120127 11 268 0.0 1.6 0.00 0.00 0.00 72 1007.7
20260504110555 10 271 0.0 1.6 0.00 0.00 0.00 73 1007.3
20260504100517 10 283 0.0 0.0 0.00 0.00 0.00 71 1007.8
20260504081910 10 268 1.6 1.6 0.00 0.00 0.00 69 1008.2
20260504081407 10 282 1.6 1.6 0.00 0.00 0.00 69 1008.5
20260504080903 10 295 0.0 1.6 0.00 0.00 0.00 71 1008.1
20260504080400 10 298 1.6 1.6 0.00 0.00 0.00 72 1008.6